Triuchirapalli, India

2:05 PM IST on May 28, 2017 (GMT +0530)
Tiruchirappalli

Weather History for VOTR - August, 2013

Change the Weather History Date:

Tuesday, August 6, 2013

  Actual Average Record
Temperature  
Mean Temperature 88 °F -  
Max Temperature 98 °F 92 °F 101 °F (2015)
Min Temperature 79 °F 79 °F 77 °F (2016)
Cooling Degree Days 24    
Growing Degree Days 38 (Base 50)    
Moisture  
Dew Point 67 °F    
Average Humidity 50    
Maximum Humidity 66    
Minimum Humidity 25    
Precipitation  
Precipitation 0.00 in - - ()
Sea Level Pressure  
Sea Level Pressure 29.73 in    
Wind  
Wind Speed 10 mph ()    
Max Wind Speed 15 mph    
Max Gust Speed 24 mph    
Visibility 3.9 miles    
Events      
Averages and records for this station are not official NWS values.
T = Trace of Precipitation, MM = Missing Value Source: Averaged Metar Reports

Daily Weather History Graph

Daily Weather History Graph

Search for Another Location

Airport or City:

Trip Planner

Search our weather history database for the weather conditions in past years. The results will help you decide how hot, cold, wet, or windy it might be!

Date:

Astronomy

Aug. 06, 2013 Rise Set
Actual Time 6:04 AM IST 6:37 PM IST
Civil Twilight 5:42 AM IST 6:59 PM IST
Nautical Twilight 5:16 AM IST 7:25 PM IST
Astronomical Twilight 4:50 AM IST 7:51 PM IST
Moon 5:23 AM IST (8/6) 6:07 PM IST (8/6)
Length of Visible Light 13h 17m
Length of Day
12h 33m
Waning Crescent, 0% of the Moon is Illuminated
Aug 6
Waning Crescent
Aug 7
New
Aug 14
First Quarter
Aug 21
Full
Aug 28
Last Quarter

Hourly Weather History & Observations

Time (IST) Temp. Heat Index Dew Point Humidity Pressure Visibility Wind Dir Wind Speed Gust Speed Precip Events Conditions
12:10 AM 82.4 °F 85.4 °F 68.0 °F 62% 29.77 in 3.7 mi West 9.2 mph - N/A   Mostly Cloudy
12:40 AM 82.4 °F 85.4 °F 68.0 °F 62% 29.74 in 3.7 mi WNW 9.2 mph - N/A   Mostly Cloudy
1:10 AM 82.4 °F 85.4 °F 68.0 °F 62% 29.74 in 3.7 mi West 9.2 mph - N/A   Mostly Cloudy
1:40 AM 82.4 °F 85.4 °F 68.0 °F 62% 29.74 in 3.7 mi WNW 11.5 mph - N/A   Mostly Cloudy
2:10 AM 80.6 °F 83.2 °F 68.0 °F 65% 29.71 in 3.7 mi West 11.5 mph - N/A   Mostly Cloudy
2:30 AM 82 °F - 68 °F 54% 29.72 in 2 mi WNW 11.5 mph - -   Haze
2:40 AM 82.4 °F 86.3 °F 69.8 °F 66% 29.71 in 3.7 mi WNW 12.7 mph - N/A   Mostly Cloudy
3:10 AM 82.4 °F 86.3 °F 69.8 °F 66% 29.71 in 3.7 mi WNW 10.4 mph - N/A   Mostly Cloudy
3:40 AM 80.6 °F 83.2 °F 68.0 °F 65% 29.71 in 3.7 mi West 11.5 mph - N/A   Mostly Cloudy
4:10 AM 80.6 °F 83.2 °F 68.0 °F 65% 29.71 in 3.7 mi West 11.5 mph - N/A   Mostly Cloudy
4:40 AM 80.6 °F 83.2 °F 68.0 °F 65% 29.71 in 3.7 mi West 12.7 mph - N/A   Mostly Cloudy
5:10 AM 80.6 °F 83.2 °F 68.0 °F 65% 29.71 in 3.7 mi West 13.8 mph - N/A   Mostly Cloudy
5:40 AM 80.6 °F 83.2 °F 68.0 °F 65% 29.71 in 3.7 mi West 10.4 mph - N/A   Mostly Cloudy
6:40 AM 80.6 °F 83.2 °F 68.0 °F 65% 29.74 in 3.1 mi West 11.5 mph - N/A   Haze
7:10 AM 80.6 °F 83.2 °F 68.0 °F 65% 29.74 in 3.1 mi West 10.4 mph - N/A   Haze
7:40 AM 82.4 °F 86.3 °F 69.8 °F 66% 29.77 in 3.1 mi West 11.5 mph - N/A   Haze
8:10 AM 82.4 °F 86.3 °F 69.8 °F 66% 29.77 in 3.1 mi West 12.7 mph - N/A   Haze
8:30 AM 83 °F - 69 °F 53% 29.78 in 2 mi West 11.5 mph - -   Haze
8:40 AM 82.4 °F 86.3 °F 69.8 °F 66% 29.77 in 3.1 mi West 12.7 mph - N/A   Haze
9:10 AM 84.2 °F 88.4 °F 69.8 °F 62% 29.77 in 3.7 mi WNW 11.5 mph - N/A   Overcast
9:40 AM 86.0 °F 89.4 °F 68.0 °F 55% 29.80 in 3.7 mi WNW 9.2 mph 20.7 mph N/A   Mostly Cloudy
10:10 AM 87.8 °F 91.4 °F 68.0 °F 52% 29.80 in 3.7 mi WNW 13.8 mph - N/A   Mostly Cloudy
10:40 AM 89.6 °F 93.4 °F 68.0 °F 49% 29.77 in 3.7 mi West 13.8 mph - N/A   Scattered Clouds
11:10 AM 91.4 °F 95.4 °F 68.0 °F 46% 29.77 in 5.0 mi WNW 12.7 mph 24.2 mph N/A   Scattered Clouds
11:30 AM 92 °F - 67 °F 33% 29.76 in 2 mi WNW 13.8 mph - -   Haze
11:40 AM 91.4 °F 95.4 °F 68.0 °F 46% 29.77 in 5.0 mi West 10.4 mph 21.9 mph N/A   Scattered Clouds
12:10 PM 93.2 °F 97.7 °F 68.0 °F 44% 29.77 in 5.0 mi WNW 12.7 mph 24.2 mph N/A   Mostly Cloudy
12:40 PM 93.2 °F 97.7 °F 68.0 °F 44% 29.74 in 5.0 mi WNW 12.7 mph 24.2 mph N/A   Mostly Cloudy
1:10 PM 95.0 °F 99.5 °F 68.0 °F 41% 29.71 in 5.0 mi NW 10.4 mph 21.9 mph N/A   Scattered Clouds
1:40 PM 95.0 °F 99.5 °F 68.0 °F 41% 29.71 in 5.0 mi NW 11.5 mph 23.0 mph N/A   Scattered Clouds
2:10 PM 95.0 °F 99.5 °F 68.0 °F 41% 29.68 in 5.0 mi West 11.5 mph 23.0 mph N/A   Scattered Clouds
2:30 PM 97 °F - 65 °F 25% 29.67 in 2 mi West 11.5 mph - -   Haze
2:40 PM 96.8 °F 99.0 °F 64.4 °F 34% 29.68 in 5.0 mi West 11.5 mph 23.0 mph N/A   Scattered Clouds
3:10 PM 96.8 °F 99.0 °F 64.4 °F 34% 29.65 in 5.0 mi West 11.5 mph 23.0 mph N/A   Scattered Clouds
3:40 PM 96.8 °F 99.0 °F 64.4 °F 34% 29.65 in 5.0 mi West 11.5 mph 23.0 mph N/A   Scattered Clouds
4:10 PM 96.8 °F 100.7 °F 66.2 °F 37% 29.65 in 5.0 mi WSW 6.9 mph - N/A   Scattered Clouds
4:40 PM 96.8 °F 100.7 °F 66.2 °F 37% 29.65 in 5.0 mi WNW 11.5 mph 23.0 mph N/A   Scattered Clouds
5:10 PM 96.8 °F 100.7 °F 66.2 °F 37% 29.65 in 5.0 mi WNW 11.5 mph 23.0 mph N/A   Scattered Clouds
5:30 PM 96 °F - 66 °F 27% 29.64 in 2 mi West 9.2 mph - -   Haze
5:40 PM 95.0 °F 98.5 °F 66.2 °F 39% 29.65 in 5.0 mi WNW 11.5 mph 23.0 mph N/A   Scattered Clouds
6:10 PM 95.0 °F 98.5 °F 66.2 °F 39% 29.68 in 5.0 mi WNW 11.5 mph 23.0 mph N/A   Scattered Clouds
6:40 PM 93.2 °F 96.2 °F 66.2 °F 41% 29.68 in 5.0 mi WNW 13.8 mph - N/A   Scattered Clouds
7:10 PM 93.2 °F 96.2 °F 66.2 °F 41% 29.71 in 5.0 mi West 9.2 mph - N/A   Scattered Clouds
7:40 PM 93.2 °F 96.2 °F 66.2 °F 41% 29.71 in 5.0 mi West 11.5 mph 23.0 mph N/A   Scattered Clouds
8:10 PM 91.4 °F 94.0 °F 66.2 °F 43% 29.74 in 3.7 mi West 15.0 mph - N/A   Scattered Clouds
8:30 PM 88 °F - 66 °F 38% 29.73 in 2 mi West 15.0 mph - -   Haze
8:40 PM 87.8 °F 90.4 °F 66.2 °F 49% 29.74 in 3.7 mi West 11.5 mph 23.0 mph N/A   Scattered Clouds
9:10 PM 86.0 °F 88.2 °F 66.2 °F 51% 29.74 in 3.7 mi West 11.5 mph 23.0 mph N/A   Scattered Clouds
9:40 PM 86.0 °F 89.4 °F 68.0 °F 55% 29.77 in 3.7 mi WNW 15.0 mph - N/A   Scattered Clouds
10:10 PM 84.2 °F 86.6 °F 66.2 °F 55% 29.77 in 3.7 mi West 13.8 mph - N/A   Mostly Cloudy
10:40 PM 84.2 °F 86.6 °F 66.2 °F 55% 29.77 in 3.7 mi West 12.7 mph - N/A   Mostly Cloudy
11:10 PM 84.2 °F 86.6 °F 66.2 °F 55% 29.77 in 3.7 mi West 10.4 mph - N/A   Mostly Cloudy
11:30 PM 84 °F - 67 °F 46% 29.77 in 2 mi West 10.4 mph - -   Haze
11:40 PM 84.2 °F 86.6 °F 66.2 °F 55% 29.77 in 3.7 mi West 9.2 mph - N/A   Mostly Cloudy